Cloud_Cover
100 100 100 100 100 75 91 50 14 100 100 62 5 68 100 34 90 11 73 80 93 97 39 41 100 100 100 100 22 12 28 23 100 100 100 100 100 100 32 8 4 5 5 5
100 100 80 100 100 100 100 100 33 100 100 69 5 26 100 41 87 78 8 68 100 100 13 21 42 37 15 8 32 33 8 4 18 75 86 48 78 44 5 5 5 5 34 5
100 100 100 100 100 100 100 100 100 94 100 34 3 2 100 8 30 100 13 99 100 100 97 71 61 84 65 42 26 22 14 5 5 4 12 14 41 37 54 6 5 5 7 5
78 100 100 100 100 100 100 98 100 100 100 57 3 17 69 5 5 36 100 100 92 74 65 100 100 100 92 98 23 7 40 36 28 78 88 99 90 100 64 6 5 5 5 24
0 97 100 100 100 100 100 100 100 100 100 100 100 100 5 15 5 92 100 100 100 58 73 100 100 100 72 60 95 95 91 100 95 91 100 100 100 78 16 40 22 69 30 62
1 44 100 100 100 100 100 92 100 100 100 100 20 94 1 34 5 18 100 85 100 100 98 90 98 100 100 100 88 42 100 100 67 100 100 100 100 94 78 100 100 87 86 93
16 100 100 100 100 100 100 99 100 100 100 85 2 10 0 100 4 85 67 93 74 83 100 97 85 100 100 100 43 64 98 64 58 82 88 100 100 98 100 86 98 100 99 90
66 100 100 100 100 100 23 97 100 100 89 2 5 2 0 88 100 100 34 100 100 100 100 100 100 94 100 99 99 76 100 75 76 70 95 89 96 66 99 98 100 60 64 48
5 4 100 100 100 100 99 100 45 97 74 70 5 0 0 11 100 100 26 74 100 100 100 100 100 20 35 34 100 100 94 93 85 90 64 90 73 100 97 100 51 38 7 5
20 89 94 100 100 100 97 69 100 100 100 91 4 2 0 0 96 100 38 26 100 100 100 100 100 100 72 74 60 95 50 79 94 56 70 82 93 76 47 33 26 5 5 8
41 62 88 100 100 96 100 100 100 100 49 8 4 0 0 0 7 100 100 33 15 100 100 100 70 100 100 100 71 85 81 25 64 74 95 96 100 65 84 98 76 19 43 57
5 100 100 100 100 65 100 100 100 100 97 19 5 1 0 2 1 96 100 100 76 6 100 100 100 100 100 100 100 100 87 19 78 98 68 100 100 100 100 100 100 100 100 100
15 97 100 79 100 100 100 100 89 100 99 89 23 1 1 5 2 21 100 100 100 27 10 77 100 100 100 100 100 100 100 100 100 100 100 100 100 100 100 100 100 100 100 100
74 5 50 70 79 97 100 100 89 94 100 37 13 0 2 6 72 32 100 100 100 100 44 89 78 100 100 100 100 100 100 97 100 100 100 100 100 100 100 100 100 100 100 100
100 100 5 5 72 100 100 100 100 100 100 89 0 0 0 16 100 100 100 100 100 100 100 100 100 100 100 100 100 100 99 89 100 100 100 100 100 100 100 100 100 100 100 100
56 9 96 5 5 92 99 90 100 100 100 100 13 2 0 0 79 100 100 100 100 100 100 100 100 100 100 100 100 100 100 100 100 100 100 100 100 100 100 100 100 100 100 100
82 75 100 27 27 98 100 44 4 3 100 58 47 0 0 5 0 49 100 100 100 100 100 100 100 97 75 100 100 100 100 100 100 100 99 93 100 100 100 100 100 100 100 100
9 31 100 5 48 100 0 0 0 2 0 28 76 2 0 4 4 0 8 98 100 100 100 100 100 100 100 50 55 71 39 56 51 72 77 100 100 100 100 100 100 100 100 100
79 98 100 91 5 12 5 2 4 5 4 0 0 0 0 0 0 0 0 0 52 100 100 100 100 100 100 100 89 67 50 8 41 97 100 100 100 100 100 100 100 100 100 95
97 99 100 48 100 6 0 0 4 90 58 0 0 0 0 0 0 0 0 1 14 99 100 100 100 100 100 100 100 100 100 100 100 100 100 100 100 100 100 100 100 100 72 85
77 100 100 94 100 37 0 0 61 99 29 0 0 0 0 0 0 0 0 13 5 27 27 100 100 100 100 93 65 100 100 100 100 100 100 100 100 100 100 100 100 100 100 100
1 24 100 100 100 79 0 0 3 0 0 0 2 1 3 85 80 2 4 99 42 11 0 2 98 100 100 100 100 100 100 100 100 100 100 100 100 100 100 100 100 100 100 100
71 1 9 94 42 0 3 0 8 1 3 5 5 73 100 92 0 5 78 97 85 42 5 5 5 43 96 100 100 100 100 100 100 100 100 100 100 100 100 100 100 100 100 100
7 94 34 17 0 10 89 7 71 18 16 100 41 97 100 14 98 100 96 1 5 2 23 11 5 4 82 100 100 100 100 100 100 100 100 100 100 100 100 100 100 100 100 100
98 100 100 22 72 44 48 74 87 46 44 100 100 100 91 48 99 100 100 100 16 6 4 61 80 89 54 58 81 99 100 100 100 100 100 100 100 100 100 100 100 100 100 100
100 100 100 100 100 100 58 94 82 100 70 90 100 100 100 99 100 100 100 100 64 92 100 17 53 95 100 100 100 100 100 100 100 100 100 100 100 100 100 100 100 100 100 100